Hourly Data Report for May 10, 2020

STE-ANNE-DE-BELLEVUE 1
QUEBEC
Current Station Operator: ECCC - MSC

45°25'38.000" N
73°55'45.000" W
39.00 m
702FHL8
71377
WVQ

Download Data

Hourly Data (May 2020)
Hourly Data Report for May 10, 2020
TIME
LST
Temp Definition
°C
Dew Point Definition
°C
Rel Hum Definition
%
Precip. Amount Definition
mm

Wind Dir Definition
10's deg

Wind Spd Definition
km/h
Visibility Definition
km
Stn Press Definition
kPa
Hmdx Definition


Wind Chill Definition


Weather Definition


00:00 2.7 -7.4 47 0.0 28 17   100.57     LegendNANA
01:00 2.4 -7.6 47 0.0 28 17   100.60     LegendNANA
02:00 2.5 -7.4 48 0.0 27 14   100.59     LegendNANA
03:00 2.6 -6.6 51 0.0 26 18   100.57     LegendNANA
04:00 2.1 -5.4 58 0.0 26 18   100.59     LegendNANA
05:00 2.0 -4.8 61 0.0 26 20   100.62     LegendNANA
06:00 2.4 -5.0 58 0.0 27 23   100.64     LegendNANA
07:00 3.4 -4.6 56 0.0 28 23   100.62     LegendNANA
08:00 4.0 -4.8 52 0.0 27 19   100.62     LegendNANA
09:00 4.4 -5.1 50 0.0 28 25   100.61     LegendNANA
10:00 5.8 -5.7 43 0.0 27 25   100.60     LegendNANA
11:00 7.7 -3.8 44 0.0 26 25   100.56     LegendNANA
12:00 8.0 -5.4 38 0.0 27 24   100.53     LegendNANA
13:00 8.1 -4.5 40 0.0 25 26   100.52     LegendNANA
14:00 9.2 -5.0 36 0.0 26 26   100.49     LegendNANA
15:00 9.7 -4.4 37 0.0 27 26   100.44     LegendNANA
16:00 10.2 -4.2 36 0.0 27 21   100.43     LegendNANA
17:00 9.6 -1.8 45 0.0 24 23   100.42     LegendNANA
18:00 9.9 -0.9 47 0.0 25 21   100.41     LegendNANA
19:00 9.4 -0.2 51 0.0 25 19   100.46     LegendNANA
20:00 7.8 1.0 62 0.0 24 18   100.53     LegendNANA
21:00 6.9 1.1 67 0.0 23 14   100.57     LegendNANA
22:00 5.8 0.9 71 0.0 27 10   100.59     LegendNANA
23:00 5.3 1.0 74 0.0 25 10   100.60     LegendNANA

Notes on Data Quality.

Legend

  • E = Estimated
  • M = Missing
  • NA = Not Available*
  • [empty] = Indicates an unobserved value
Date modified: